Flag for Norway Weather past 2 weeks in Sandnes, Norway

Now
41 °F

Partly cloudy.


Feels Like: 33 °F
Forecast: 37 / 43 °F
Wind: 14 mph from South

Location: Stavanger / Sola

Current Time: Jan 25, 2015 at 6:14:48 PM

Latest Report: Jan 25, 2015 at 5:50 PM


Visibility: N/A

Pressure: 30.01 "Hg

Humidity: 93%

Dew point: 39 °F

Location of SandnesLocation

Historic Weather in Sandnes — Graph

°F

Sandnes temperature yesterday

Maximum temperature yesterday: 43 °F (at 12:50 AM)
Minimum temperature yesterday: 34 °F (at 10:20 PM)
Average temperature yesterday: 39 °F

Past Weeks' High & Low Weather Summary

 TemperatureHumidityPressure
High48 °F (Jan 12, 11:20 AM)100% (Jan 18, 9:20 PM)30.21 "Hg (Jan 18, 9:20 PM)
Low23 °F (Jan 22, 4:50 AM)45% (Jan 21, 3:50 PM)28.59 "Hg (Jan 16, 3:50 AM)
Average38 °F75%29.56 "Hg
* Reported Jan 10 4:20 PM — Jan 25 4:50 PM, Sandnes, Weather by CustomWeather, © 2014

Note: Actual official high and low records may vary slightly from our data, if they occured in-between our weather recording intervals... More about our weather records

Advertising

Sandnes weather history for previous 24 hours

 ConditionsComfort  
Time TempWeatherWind HumidityBarometerVisibility
4:50 PM
Jan 25
41 °FPassing clouds.9 mph87%30.04 "HgN/A
4:20 PM41 °FScattered showers. Partly sunny.12 mph87%30.04 "HgN/A
3:50 PM41 °FBroken clouds.12 mph87%30.04 "HgN/A
3:20 PM41 °FDrizzle. Broken clouds.10 mph93%30.04 "HgN/A
2:50 PM41 °FScattered showers. Partly sunny.8 mph93%30.07 "HgN/A
2:20 PM41 °FScattered showers. Broken clouds.9 mph93%30.07 "HgN/A
1:50 PM41 °FScattered showers. Broken clouds.8 mph87%30.07 "HgN/A
1:20 PM39 °FDrizzle. Partly sunny.7 mph93%30.09 "HgN/A
12:50 PM39 °FDrizzle. Broken clouds.8 mph87%30.09 "HgN/A
12:20 PM39 °FDrizzle. Broken clouds.7 mph87%30.09 "HgN/A
11:50 AM37 °FPartly sunny.8 mph93%30.09 "HgN/A
11:20 AM37 °FScattered clouds.9 mph93%30.09 "HgN/A
10:50 AM36 °FScattered clouds.8 mph93%30.09 "HgN/A
10:20 AM36 °FBroken clouds.8 mph93%30.09 "HgN/A
9:50 AM36 °FPartly sunny.7 mph93%30.12 "HgN/A
9:20 AM36 °FDrizzle. Partly sunny.7 mph93%30.12 "HgN/A
8:50 AM36 °FPassing clouds.7 mph93%30.09 "HgN/A
8:20 AM36 °FPassing clouds.7 mph93%30.09 "HgN/A
7:50 AM36 °FPassing clouds.6 mph93%30.09 "HgN/A
7:20 AM36 °FPassing clouds.6 mph93%30.09 "HgN/A
6:50 AM34 °FPassing clouds.6 mph93%30.07 "HgN/A
6:20 AM34 °FPartly cloudy.6 mph93%30.07 "HgN/A
5:50 AM34 °FPassing clouds.6 mph93%30.07 "HgN/A
5:20 AM32 °FPassing clouds.6 mph93%30.07 "HgN/A
4:50 AM32 °FPassing clouds.6 mph100%30.07 "HgN/A
3:50 AM34 °FPassing clouds.3 mph93%30.04 "HgN/A
2:50 AM34 °FPassing clouds.5 mph93%30.04 "HgN/A
1:50 AM34 °FPassing clouds.5 mph93%30.01 "HgN/A
12:50 AM34 °FPassing clouds.7 mph93%30.01 "HgN/A
11:50 PM
Jan 24
34 °FPassing clouds.5 mph93%29.98 "HgN/A
11:20 PM34 °FPartly cloudy.5 mph93%29.98 "HgN/A
10:50 PM34 °FPassing clouds.5 mph93%29.98 "HgN/A
10:20 PM34 °FPassing clouds.7 mph93%29.98 "HgN/A
9:50 PM36 °FPassing clouds.2 mph87%29.98 "HgN/A
9:20 PM37 °FPassing clouds.6 mph87%29.95 "HgN/A
8:50 PM37 °FScattered showers. Passing clouds.12 mph87%29.95 "HgN/A
8:20 PM37 °FScattered showers. Partly cloudy.22 mph87%29.92 "HgN/A
7:50 PM39 °FRain showers. Partly cloudy.23 mph81%29.89 "HgN/A
7:20 PM39 °FPassing clouds.13 mph75%29.89 "HgN/A
6:50 PM39 °FScattered showers. Passing clouds.15 mph81%29.86 "HgN/A
6:20 PM39 °FScattered showers. Partly cloudy.21 mph81%29.86 "HgN/A
Weather by CustomWeather, © 2014

See weather overviewHow to use our weather pages